Time,TemperatureF,DewpointF,PressureIn,WindDirection,WindDirectionDegrees,WindSpeedMPH,WindSpeedGustMPH,Humidity,HourlyPrecipIn,Conditions,Clouds,dailyrainin,SoftwareType,DateUTC
2013-07-08 00:03:00,80.4,52.0,29.61,ENE,63,0.0,6.0,38,0.00,,,0.00,weatherlink.com 1.10,2013-07-08 06:03:00,
2013-07-08 00:18:00,80.2,53.0,29.61,NE,46,0.0,7.0,39,0.00,,,0.00,weatherlink.com 1.10,2013-07-08 06:18:00,
2013-07-08 00:33:00,79.9,53.0,29.61,ENE,58,0.0,5.0,39,0.00,,,0.00,weatherlink.com 1.10,2013-07-08 06:33:00,
2013-07-08 00:48:00,79.9,53.0,29.61,East,95,0.0,5.0,39,0.00,,,0.00,weatherlink.com 1.10,2013-07-08 06:48:00,
2013-07-08 01:03:00,79.9,53.0,29.61,ENE,58,0.0,7.0,39,0.00,,,0.00,weatherlink.com 1.10,2013-07-08 07:03:00,
2013-07-08 01:18:00,79.4,53.0,29.61,East,84,0.0,3.0,40,0.00,,,0.00,weatherlink.com 1.10,2013-07-08 07:18:00,
2013-07-08 01:33:00,79.2,53.0,29.62,East,80,5.0,9.0,41,0.00,,,0.00,weatherlink.com 1.10,2013-07-08 07:33:00,
2013-07-08 01:48:00,78.8,54.0,29.62,NE,48,2.0,5.0,42,0.00,,,0.00,weatherlink.com 1.10,2013-07-08 07:48:00,
2013-07-08 02:03:00,78.1,54.0,29.63,ENE,59,0.0,3.0,43,0.00,,,0.00,weatherlink.com 1.10,2013-07-08 08:03:00,
2013-07-08 02:18:00,77.8,53.0,29.63,ENE,63,0.0,5.0,43,0.00,,,0.00,weatherlink.com 1.10,2013-07-08 08:18:00,
2013-07-08 02:33:00,77.8,54.0,29.63,ENE,73,0.0,1.0,44,0.00,,,0.00,weatherlink.com 1.10,2013-07-08 08:33:00,
2013-07-08 02:48:00,77.7,54.0,29.64,NNW,346,8.0,14.0,44,0.00,,,0.00,weatherlink.com 1.10,2013-07-08 08:48:00,
2013-07-08 03:03:00,77.9,54.0,29.65,NNW,340,0.0,11.0,44,0.00,,,0.00,weatherlink.com 1.10,2013-07-08 09:03:00,
2013-07-08 03:18:00,77.3,52.0,29.65,NNW,329,12.0,18.0,41,0.00,,,0.00,weatherlink.com 1.10,2013-07-08 09:18:00,
2013-07-08 03:33:00,76.5,52.0,29.65,North,350,2.0,10.0,42,0.00,,,0.00,weatherlink.com 1.10,2013-07-08 09:33:00,
2013-07-08 03:48:00,76.1,51.0,29.65,NNW,346,2.0,10.0,42,0.00,,,0.00,weatherlink.com 1.10,2013-07-08 09:48:00,
2013-07-08 04:03:00,75.5,51.0,29.65,NNW,333,0.0,6.0,43,0.00,,,0.00,weatherlink.com 1.10,2013-07-08 10:03:00,
2013-07-08 04:18:00,75.1,52.0,29.65,NW,325,4.0,6.0,44,0.00,,,0.00,weatherlink.com 1.10,2013-07-08 10:18:00,
2013-07-08 04:33:00,74.9,52.0,29.65,NW,323,0.0,7.0,45,0.00,,,0.00,weatherlink.com 1.10,2013-07-08 10:33:00,
2013-07-08 04:48:00,74.4,52.0,29.65,NNW,331,0.0,0.0,46,0.00,,,0.00,weatherlink.com 1.10,2013-07-08 10:48:00,
2013-07-08 05:03:00,73.7,54.0,29.65,North,360,0.0,0.0,50,0.00,,,0.00,weatherlink.com 1.10,2013-07-08 11:03:00,
2013-07-08 05:18:00,73.0,54.0,29.65,North,360,0.0,0.0,51,0.00,,,0.00,weatherlink.com 1.10,2013-07-08 11:18:00,
2013-07-08 05:33:00,72.1,55.0,29.65,North,360,0.0,0.0,55,0.00,,,0.00,weatherlink.com 1.10,2013-07-08 11:33:00,
2013-07-08 05:49:00,71.7,54.0,29.65,ENE,58,0.0,0.0,54,0.00,,,0.00,weatherlink.com 1.10,2013-07-08 11:49:00,
2013-07-08 06:04:00,71.5,54.0,29.65,SSE,154,0.0,1.0,55,0.00,,,0.00,weatherlink.com 1.10,2013-07-08 12:04:00,
2013-07-08 06:19:00,71.3,55.0,29.65,South,175,0.0,1.0,57,0.00,,,0.00,weatherlink.com 1.10,2013-07-08 12:19:00,
2013-07-08 06:34:00,71.2,56.0,29.65,SSW,192,0.0,1.0,58,0.00,,,0.00,weatherlink.com 1.10,2013-07-08 12:34:00,
2013-07-08 06:49:00,71.2,56.0,29.65,ESE,103,0.0,0.0,59,0.00,,,0.00,weatherlink.com 1.10,2013-07-08 12:49:00,
2013-07-08 07:04:00,72.4,55.0,29.65,SSW,192,1.0,3.0,55,0.00,,,0.00,weatherlink.com 1.10,2013-07-08 13:04:00,
2013-07-08 07:19:00,73.5,55.0,29.66,SSE,165,0.0,1.0,53,0.00,,,0.00,weatherlink.com 1.10,2013-07-08 13:19:00,
2013-07-08 07:34:00,74.7,55.0,29.66,South,176,1.0,3.0,51,0.00,,,0.00,weatherlink.com 1.10,2013-07-08 13:34:00,
2013-07-08 07:49:00,74.7,55.0,29.67,SSW,195,0.0,4.0,51,0.00,,,0.00,weatherlink.com 1.10,2013-07-08 13:49:00,
2013-07-08 08:04:00,75.1,56.0,29.68,South,178,0.0,4.0,51,0.00,,,0.00,weatherlink.com 1.10,2013-07-08 14:04:00,
2013-07-08 08:19:00,75.8,55.0,29.68,South,185,1.0,3.0,49,0.00,,,0.00,weatherlink.com 1.10,2013-07-08 14:19:00,
2013-07-08 08:34:00,76.5,56.0,29.69,South,188,5.0,5.0,50,0.00,,,0.00,weatherlink.com 1.10,2013-07-08 14:34:00,
2013-07-08 08:49:00,77.3,56.0,29.70,SW,222,0.0,6.0,48,0.00,,,0.00,weatherlink.com 1.10,2013-07-08 14:49:00,
2013-07-08 09:04:00,78.0,55.0,29.70,SSW,204,0.0,3.0,45,0.00,,,0.00,weatherlink.com 1.10,2013-07-08 15:04:00,
2013-07-08 09:19:00,78.1,55.0,29.70,SSW,193,4.0,8.0,45,0.00,,,0.00,weatherlink.com 1.10,2013-07-08 15:19:00,
2013-07-08 09:34:00,79.6,55.0,29.70,SE,140,0.0,7.0,43,0.00,,,0.00,weatherlink.com 1.10,2013-07-08 15:34:00,
2013-07-08 09:49:00,80.2,54.0,29.71,SE,146,4.0,9.0,41,0.00,,,0.00,weatherlink.com 1.10,2013-07-08 15:49:00,
2013-07-08 10:04:00,80.8,54.0,29.70,South,178,1.0,7.0,40,0.00,,,0.00,weatherlink.com 1.10,2013-07-08 16:04:00,
2013-07-08 10:19:00,81.9,55.0,29.70,South,184,0.0,4.0,40,0.00,,,0.00,weatherlink.com 1.10,2013-07-08 16:19:00,
2013-07-08 10:34:00,81.0,54.0,29.70,SSW,211,2.0,15.0,39,0.00,,,0.00,weatherlink.com 1.10,2013-07-08 16:34:00,
2013-07-08 10:49:00,80.9,53.0,29.70,WSW,244,2.0,4.0,38,0.00,,,0.00,weatherlink.com 1.10,2013-07-08 16:49:00,
2013-07-08 11:04:00,80.8,54.0,29.71,SSW,200,0.0,7.0,39,0.00,,,0.00,weatherlink.com 1.10,2013-07-08 17:04:00,
2013-07-08 11:19:00,80.8,54.0,29.70,SSW,204,0.0,6.0,39,0.00,,,0.00,weatherlink.com 1.10,2013-07-08 17:19:00,
2013-07-08 11:34:00,82.1,55.0,29.69,SW,222,0.0,8.0,39,0.00,,,0.00,weatherlink.com 1.10,2013-07-08 17:34:00,
2013-07-08 12:19:00,85.9,54.0,29.68,SE,142,0.0,5.0,33,0.00,,,0.00,weatherlink.com 1.10,2013-07-08 18:19:00,
2013-07-08 12:34:00,87.5,53.0,29.67,ENE,71,0.0,5.0,31,0.00,,,0.00,weatherlink.com 1.10,2013-07-08 18:34:00,
2013-07-08 12:49:00,88.5,53.0,29.66,SSW,201,4.0,6.0,30,0.00,,,0.00,weatherlink.com 1.10,2013-07-08 18:49:00,
2013-07-08 13:04:00,89.0,53.0,29.65,NNE,18,1.0,5.0,29,0.00,,,0.00,weatherlink.com 1.10,2013-07-08 19:04:00,
2013-07-08 13:34:00,90.8,53.0,29.63,NW,321,1.0,5.0,28,0.00,,,0.00,weatherlink.com 1.10,2013-07-08 19:34:00,
2013-07-08 14:04:00,92.2,53.0,29.62,SSW,199,1.0,6.0,26,0.00,,,0.00,weatherlink.com 1.10,2013-07-08 20:04:00,
2013-07-08 14:20:00,92.9,51.0,29.61,WSW,254,1.0,5.0,24,0.00,,,0.00,weatherlink.com 1.10,2013-07-08 20:20:00,
2013-07-08 14:50:00,93.7,52.0,29.60,NNW,348,6.0,6.0,24,0.00,,,0.00,weatherlink.com 1.10,2013-07-08 20:50:00,
2013-07-08 15:20:00,95.8,51.0,29.59,SSW,212,5.0,8.0,22,0.00,,,0.00,weatherlink.com 1.10,2013-07-08 21:20:00,
2013-07-08 15:50:00,93.4,53.0,29.59,East,93,16.0,19.0,25,0.00,,,0.00,weatherlink.com 1.10,2013-07-08 21:50:00,
2013-07-08 16:05:00,92.0,52.0,29.58,NE,46,4.0,19.0,26,0.00,,,0.00,weatherlink.com 1.10,2013-07-08 22:05:00,
2013-07-08 16:35:00,89.4,53.0,29.58,East,96,17.0,18.0,29,0.00,,,0.00,weatherlink.com 1.10,2013-07-08 22:35:00,
2013-07-08 16:50:00,89.6,53.0,29.59,SE,134,1.0,15.0,29,0.00,,,0.00,weatherlink.com 1.10,2013-07-08 22:50:00,
2013-07-08 17:20:00,88.2,53.0,29.60,East,83,10.0,15.0,30,0.00,,,0.00,weatherlink.com 1.10,2013-07-08 23:20:00,
2013-07-08 17:35:00,87.2,53.0,29.59,SE,125,2.0,14.0,31,0.00,,,0.00,weatherlink.com 1.10,2013-07-08 23:35:00,
2013-07-08 17:50:00,87.4,52.0,29.58,SE,129,6.0,13.0,30,0.00,,,0.00,weatherlink.com 1.10,2013-07-08 23:50:00,
2013-07-08 18:05:00,88.0,52.0,29.58,East,86,3.0,13.0,29,0.00,,,0.00,weatherlink.com 1.10,2013-07-09 00:05:00,
2013-07-08 18:20:00,87.7,52.0,29.58,SE,132,4.0,12.0,29,0.00,,,0.00,weatherlink.com 1.10,2013-07-09 00:20:00,
2013-07-08 18:50:00,86.7,53.0,29.59,ESE,103,4.0,10.0,32,0.00,,,0.00,weatherlink.com 1.10,2013-07-09 00:50:00,
2013-07-08 19:20:00,85.7,54.0,29.59,ESE,110,1.0,12.0,34,0.00,,,0.00,weatherlink.com 1.10,2013-07-09 01:20:00,
2013-07-08 19:35:00,85.5,54.0,29.60,East,91,7.0,10.0,34,0.00,,,0.00,weatherlink.com 1.10,2013-07-09 01:35:00,
2013-07-08 20:20:00,84.7,53.0,29.63,ENE,60,0.0,8.0,34,0.00,,,0.00,weatherlink.com 1.10,2013-07-09 02:20:00,
2013-07-08 21:05:00,71.5,61.0,29.71,NW,317,6.0,17.0,69,0.01,,,0.01,weatherlink.com 1.10,2013-07-09 03:05:00,
2013-07-08 21:35:00,68.0,59.0,29.75,South,172,7.0,7.0,74,0.02,,,0.02,weatherlink.com 1.10,2013-07-09 03:35:00,
2013-07-08 21:50:00,67.7,60.0,29.77,North,5,0.0,4.0,75,0.03,,,0.03,weatherlink.com 1.10,2013-07-09 03:50:00,
2013-07-08 22:05:00,67.9,61.0,29.76,East,79,0.0,1.0,78,0.02,,,0.03,weatherlink.com 1.10,2013-07-09 04:05:00,
2013-07-08 22:20:00,68.8,61.0,29.75,NNE,22,2.0,5.0,75,0.02,,,0.03,weatherlink.com 1.10,2013-07-09 04:20:00,
2013-07-08 22:35:00,69.7,60.0,29.74,NE,54,1.0,6.0,72,0.01,,,0.03,weatherlink.com 1.10,2013-07-09 04:35:00,
2013-07-08 22:50:00,70.6,59.0,29.74,NNW,344,0.0,6.0,67,0.00,,,0.03,weatherlink.com 1.10,2013-07-09 04:50:00,
2013-07-08 23:05:00,70.9,60.0,29.75,North,5,0.0,0.0,68,0.00,,,0.03,weatherlink.com 1.10,2013-07-09 05:05:00,
2013-07-08 23:20:00,70.9,60.0,29.75,NW,306,0.0,2.0,69,0.00,,,0.03,weatherlink.com 1.10,2013-07-09 05:20:00,
2013-07-08 23:35:00,71.0,61.0,29.76,SW,233,0.0,4.0,70,0.00,,,0.03,weatherlink.com 1.10,2013-07-09 05:35:00,
2013-07-08 23:50:00,68.9,61.0,29.76,SSW,198,2.0,4.0,75,0.00,,,0.03,weatherlink.com 1.10,2013-07-09 05:50:00,